Probability
0 0 0 0 0 0 0 0 0 0 0 0 0 0 0 0 0 0 0 0 0 0 0 0 0 0 0 0 0 0 0 0 0 0 0 0 0 0 0 0 0 0 0 0
0 0 0 0 0 0 0 0 0 0 0 0 0 0 0 0 0 0 0 0 0 0 0 0 0 0 0 0 0 0 0 0 0 0 0 0 0 0 0 0 0 0 0 0
0 0 0 0 0 0 0 0 0 0 0 0 0 0 0 0 0 0 0 0 0 0 0 0 0 0 0 0 0 0 0 0 0 0 0 0 0 0 0 0 0 0 0 0
0 0 0 0 0 0 0 0 0 0 0 0 0 0 0 0 0 0 0 0 0 0 0 0 0 0 0 0 0 0 0 0 0 0 0 0 0 0 0 0 0 0 0 0
0 0 0 0 0 0 0 0 0 0 0 0 0 0 0 0 0 0 0 0 0 0 0 0 0 0 0 0 0 0 0 0 0 0 0 0 0 0 0 0 0 0 0 0
0 0 0 0 0 0 0 0 0 0 0 0 0 0 0 0 0 0 0 0 0 0 0 0 0 0 0 0 0 0 0 0 0 0 0 0 0 0 0 0 0 0 0 0
0 0 0 0 0 0 0 0 0 0 0 0 0 0 0 0 0 0 0 0 0 0 0 0 0 0 0 0 0 0 0 0 0 0 0 0 0 0 0 0 0 0 0 0
0 0 0 0 0 0 0 0 0 0 0 0 0 0 0 0 0 0 0 0 0 0 0 0 0 0 0 0 0 0 0 0 0 0 0 0 0 0 0 0 0 0 0 0
0 0 0 0 0 0 0 0 0 0 0 0 0 0 0 0 0 0 0 0 0 0 0 0 0 0 0 0 0 0 0 0 0 0 0 0 0 0 0 0 0 0 0 0
0 0 0 0 0 0 0 0 0 0 0 0 0 0 0 0 0 0 0 0 0 0 0 0 0 0 0 0 0 0 0 0 0 0 0 0 0 0 0 0 0 0 0 0
0 0 0 0 0 0 0 0 0 0 0 0 0 0 0 0 0 0 0 0 0 0 0 0 0 0 0 0 0 0 0 0 0 0 0 0 0 0 0 0 0 0 0 0
0 0 0 0 0 0 0 0 0 0 0 0 0 0 0 0 0 0 0 0 0 0 0 0 0 0 0 0 0 0 0 0 0 0 0 0 0 0 0 0 0 0 0 0
0 0 0 0 0 0 0 0 0 0 0 0 0 0 0 0 0 0 0 0 0 0 0 0 0 0 0 0 0 0 0 0 0 0 0 0 0 0 0 0 0 0 0 0
0 0 0 0 0 0 0 0 0 0 0 0 0 0 0 0 0 0 0 0 0 0 0 0 0 0 0 0 0 0 0 0 0 0 0 0 0 0 0 0 0 0 0 0
0 0 0 0 0 0 0 0 0 0 0 0 0 0 0 0 0 0 0 0 0 0 0 0 0 0 0 0 0 0 0 0 0 0 0 0 0 0 0 0 0 0 0 0
0 0 0 0 0 0 0 0 0 0 0 0 0 0 0 0 0 0 0 0 0 0 0 0 0 0 0 0 0 0 0 0 0 0 0 0 0 0 0 0 0 0 0 0
0 0 0 0 0 0 0 0 0 0 0 0 0 0 0 0 0 0 0 0 0 0 0 0 0 0 0 0 0 0 0 0 0 0 0 0 0 0 0 0 0 0 0 0
0 0 0 0 0 0 0 0 0 0 0 0 0 0 0 0 0 0 0 0 0 0 0 0 0 0 0 0 0 0 0 0 0 0 0 0 0 0 0 0 0 0 0 0
0 0 0 0 0 0 0 0 0 0 0 0 0 0 0 0 0 0 0 0 0 0 0 0 0 0 0 0 0 0 0 0 0 0 0 0 0 0 0 0 0 0 0 0
0 0 0 0 0 0 0 0 0 0 0 0 0 0 0 0 0 0 0 0 0 0 0 0 0 0 0 0 0 0 0 0 0 0 0 0 0 0 0 0 0 0 0 0
0 0 0 0 0 0 0 0 0 0 0 0 0 0 0 0 0 0 0 0 0 0 0 0 0 0 0 0 0 0 0 0 0 0 0 0 0 0 0 0 0 0 0 0
0 0 0 0 0 0 0 0 0 0 0 0 0 0 0 0 0 0 0 0 0 0 0 0 0 0 0 0 0 0 0 0 0 0 0 0 0 0 0 0 0 0 0 0
0 0 0 0 0 0 0 0 0 0 0 0 0 0 0 0 0 0 0 0 0 0 0 0 0 0 0 0 0 0 0 0 0 0 0 0 0 0 0 0 0 0 0 0
0 0 0 0 0 0 0 0 0 0 0 0 0 0 0 0 0 0 0 0 0 0 0 0 0 0 0 0 0 0 0 0 0 0 0 0 0 0 0 0 0 0 0 0
0 0 0 0 0 0 0 0 0 0 0 0 0 0 0 0 0 0 0 0 0 0 0 0 0 0 0 0 0 0 0 0 0 0 0 0 0 0 0 0 0 0 0 0
0 0 0 0 0 0 0 0 0 0 0 0 0 0 0 0 0 0 0 0 0 0 0 0 0 0 0 0 0 0 0 0 0 0 0 0 0 0 0 0 0 0 0 0
Height
5677 5677 5679 5685 5687 5688 5689 5693 5698 5700 5700 5705 5710 5715 5719 5724 5732 5737 5740 5745 5750 5755 5757 5760 5764 5768 5769 5771 5773 5775 5777 5778 5779 5779 5780 5780 5780 5779 5778 5776 5773 5771 5769 5767
5663 5665 5669 5670 5670 5673 5677 5681 5686 5687 5686 5692 5697 5702 5707 5714 5722 5727 5731 5737 5743 5747 5750 5754 5758 5762 5763 5765 5767 5768 5771 5772 5773 5774 5774 5774 5774 5773 5771 5768 5767 5764 5762 5760
5648 5652 5653 5654 5656 5658 5663 5668 5671 5672 5674 5680 5685 5691 5696 5705 5711 5715 5720 5728 5734 5739 5742 5747 5752 5755 5757 5758 5760 5762 5764 5766 5767 5768 5768 5768 5768 5767 5764 5762 5760 5757 5755 5752
5631 5637 5638 5639 5640 5641 5648 5652 5655 5658 5661 5666 5670 5678 5686 5693 5701 5707 5712 5719 5727 5732 5736 5741 5745 5748 5750 5752 5754 5757 5758 5759 5761 5762 5762 5761 5761 5759 5757 5755 5753 5750 5747 5744
5618 5621 5621 5622 5627 5629 5635 5638 5639 5642 5646 5649 5658 5663 5675 5680 5690 5699 5705 5713 5720 5724 5728 5733 5738 5741 5743 5745 5748 5750 5751 5752 5754 5755 5755 5755 5753 5752 5749 5747 5745 5742 5738 5734
5605 5604 5606 5609 5613 5615 5618 5623 5624 5628 5631 5637 5648 5649 5659 5673 5683 5692 5698 5703 5712 5717 5722 5727 5731 5734 5737 5739 5741 5743 5745 5746 5747 5748 5748 5747 5746 5744 5742 5739 5736 5732 5729 5725
5589 5591 5593 5596 5599 5601 5604 5610 5614 5617 5619 5623 5634 5638 5648 5668 5674 5684 5690 5697 5705 5710 5715 5720 5724 5727 5730 5732 5734 5737 5739 5740 5741 5741 5740 5739 5738 5736 5734 5731 5728 5724 5721 5716
5578 5582 5585 5587 5591 5592 5595 5600 5604 5609 5612 5620 5627 5632 5646 5662 5667 5673 5681 5688 5695 5702 5708 5713 5717 5720 5723 5726 5728 5731 5732 5733 5734 5733 5733 5732 5730 5728 5726 5723 5720 5716 5712 5709
5571 5575 5578 5579 5580 5581 5583 5587 5599 5604 5608 5615 5623 5630 5643 5654 5660 5668 5675 5683 5690 5696 5701 5707 5712 5715 5718 5720 5721 5723 5724 5726 5726 5725 5724 5723 5722 5720 5717 5714 5711 5707 5703 5700
5566 5568 5571 5571 5571 5573 5577 5585 5587 5592 5601 5607 5616 5625 5638 5651 5656 5662 5670 5679 5686 5690 5695 5701 5706 5709 5711 5712 5714 5717 5718 5719 5719 5718 5717 5715 5714 5711 5708 5705 5702 5698 5694 5689
5560 5562 5564 5564 5565 5567 5570 5575 5580 5590 5597 5604 5613 5625 5638 5645 5652 5660 5667 5674 5680 5685 5690 5695 5699 5701 5703 5705 5708 5710 5711 5711 5711 5710 5709 5708 5706 5703 5699 5696 5693 5690 5685 5680
5556 5557 5558 5560 5562 5564 5566 5572 5580 5586 5597 5603 5608 5622 5633 5640 5650 5655 5661 5669 5675 5679 5684 5689 5693 5696 5699 5700 5702 5703 5703 5704 5703 5702 5702 5700 5697 5694 5691 5688 5685 5680 5675 5670
5555 5556 5559 5561 5563 5563 5564 5568 5575 5588 5598 5601 5607 5621 5627 5636 5643 5650 5657 5664 5670 5675 5680 5684 5688 5692 5694 5695 5695 5696 5697 5697 5696 5695 5694 5692 5689 5687 5684 5680 5675 5670 5665 5660
5558 5559 5562 5565 5568 5568 5570 5575 5580 5588 5595 5599 5607 5619 5628 5635 5644 5651 5657 5662 5666 5671 5675 5679 5683 5686 5688 5688 5689 5690 5690 5690 5689 5688 5686 5685 5682 5679 5675 5670 5665 5660 5655 5649
5562 5564 5564 5566 5567 5570 5574 5580 5586 5591 5597 5603 5610 5620 5630 5635 5648 5652 5656 5660 5664 5668 5671 5674 5678 5680 5681 5682 5682 5683 5683 5683 5682 5680 5679 5677 5674 5670 5665 5660 5656 5650 5644 5637
5562 5565 5567 5570 5571 5573 5577 5581 5586 5591 5595 5602 5611 5621 5628 5639 5648 5652 5655 5658 5661 5664 5667 5670 5673 5674 5675 5676 5676 5676 5676 5675 5674 5673 5671 5668 5664 5660 5656 5651 5645 5639 5632 5625
5568 5569 5573 5577 5576 5580 5583 5586 5591 5595 5599 5606 5617 5626 5635 5643 5646 5649 5652 5655 5659 5662 5665 5666 5667 5668 5668 5669 5669 5669 5668 5668 5667 5665 5663 5659 5655 5650 5645 5640 5634 5627 5620 5612
5577 5577 5580 5584 5585 5587 5592 5591 5595 5600 5606 5612 5619 5630 5637 5641 5643 5646 5649 5653 5656 5658 5659 5661 5662 5663 5663 5663 5663 5663 5662 5661 5659 5657 5653 5649 5644 5639 5634 5629 5623 5616 5607 5597
5584 5583 5586 5587 5589 5591 5595 5597 5601 5607 5610 5615 5623 5630 5634 5638 5641 5644 5647 5650 5652 5653 5655 5656 5656 5656 5657 5657 5657 5656 5655 5653 5651 5647 5643 5639 5634 5629 5624 5618 5611 5603 5593 5582
5586 5587 5590 5591 5592 5594 5599 5601 5605 5610 5613 5617 5621 5626 5630 5634 5637 5640 5643 5646 5647 5648 5649 5650 5650 5651 5651 5651 5650 5649 5647 5645 5641 5638 5634 5630 5625 5619 5612 5605 5597 5588 5579 5569
5586 5587 5590 5591 5594 5597 5600 5601 5605 5610 5613 5616 5619 5622 5626 5630 5634 5637 5639 5640 5641 5642 5643 5644 5645 5645 5645 5644 5642 5641 5639 5636 5633 5629 5625 5620 5614 5608 5601 5592 5583 5575 5566 5558
5583 5585 5588 5590 5593 5598 5599 5601 5604 5607 5610 5613 5616 5619 5622 5625 5628 5631 5633 5634 5635 5637 5638 5639 5638 5638 5637 5636 5635 5633 5630 5627 5623 5619 5614 5609 5602 5595 5587 5579 5570 5563 5555 5546
5581 5585 5588 5591 5595 5596 5597 5600 5602 5604 5606 5609 5612 5615 5618 5621 5623 5625 5627 5628 5630 5631 5631 5631 5630 5630 5629 5628 5626 5624 5621 5617 5613 5608 5603 5597 5590 5582 5575 5567 5560 5551 5542 5533
5581 5583 5587 5590 5593 5595 5596 5598 5600 5602 5604 5607 5609 5611 5613 5615 5617 5620 5622 5623 5624 5624 5624 5624 5623 5623 5622 5620 5617 5614 5611 5607 5602 5597 5591 5585 5578 5571 5564 5556 5548 5538 5528 5518
5576 5580 5584 5587 5589 5591 5593 5595 5598 5600 5602 5604 5606 5607 5608 5610 5613 5615 5617 5618 5619 5619 5619 5618 5617 5616 5613 5611 5608 5605 5601 5597 5592 5586 5580 5574 5567 5560 5552 5543 5534 5525 5513 5501
5574 5578 5581 5582 5586 5589 5592 5594 5596 5598 5600 5601 5602 5604 5605 5607 5609 5611 5612 5613 5613 5613 5613 5612 5610 5607 5605 5602 5599 5596 5591 5586 5581 5576 5570 5564 5557 5549 5541 5532 5521 5508 5497 5482
Wind_Speed
43 47 48 46 47 49 50 50 49 49 49 48 48 48 48 45 42 44 43 38 37 33 30 28 26 26 29 28 26 23 19 23 25 23 22 22 25 27 29 31 31 30 29 32
47 48 46 48 51 52 52 52 51 51 52 51 52 52 51 50 45 47 46 39 35 33 30 28 27 26 28 28 25 24 21 23 26 25 24 25 27 28 30 29 28 28 30 34
47 47 48 51 53 54 54 54 53 53 52 54 54 54 52 50 48 49 49 42 36 32 30 27 27 28 27 28 27 26 24 24 26 27 27 28 29 29 27 26 27 31 35 38
50 47 49 51 53 52 52 49 49 49 50 51 51 56 55 49 47 51 50 45 36 31 28 27 27 29 28 28 28 28 27 26 27 29 30 30 29 28 28 29 32 37 39 39
46 44 47 51 48 47 47 44 46 48 50 53 52 58 57 54 50 52 50 44 36 31 28 27 27 28 27 27 28 29 29 29 30 31 31 30 28 28 30 33 37 39 40 41
42 45 46 46 46 47 46 43 46 48 50 55 53 58 59 51 50 49 47 44 35 31 27 27 26 26 26 27 27 28 29 30 30 32 31 29 29 31 33 36 39 39 40 41
36 36 36 37 39 42 43 44 43 46 53 58 55 60 58 45 45 44 46 44 35 31 27 26 27 27 27 27 28 28 29 29 30 30 30 30 32 34 36 38 38 38 39 39
29 29 31 32 31 34 38 43 47 42 50 51 51 57 54 43 40 44 45 42 37 32 29 28 28 28 29 29 28 28 28 29 30 29 31 33 35 37 37 38 38 38 38 39
19 27 30 31 29 31 34 39 40 39 36 42 49 52 51 42 38 39 40 39 37 29 27 27 29 29 29 29 28 28 28 28 29 30 33 35 37 36 37 38 39 38 39 40
21 23 25 29 29 33 35 34 42 45 39 39 47 53 49 36 37 37 36 32 31 28 26 26 27 30 30 30 29 28 27 29 30 32 35 36 35 35 36 38 38 39 41 42
14 19 23 29 27 24 33 39 40 45 44 39 36 40 39 33 37 35 31 28 26 25 26 28 29 28 29 29 29 29 29 30 31 33 34 33 34 35 36 36 39 41 43 45
11 17 22 23 24 22 28 35 38 48 45 29 23 23 29 31 30 27 25 27 27 25 25 26 26 25 25 26 28 28 29 31 32 32 32 33 34 34 35 38 41 43 45 48
8 10 11 15 18 21 30 38 41 45 44 31 20 23 30 29 29 25 22 23 22 23 22 22 22 22 23 25 26 27 28 29 30 31 32 33 33 35 37 41 43 45 49 51
10 10 9 11 11 17 27 39 43 45 43 28 17 29 28 26 22 20 19 18 18 19 19 19 20 22 23 24 24 25 27 29 30 30 31 32 34 37 40 43 46 49 50 53
2 4 4 4 2 17 28 32 35 37 33 19 23 28 24 22 18 15 13 12 12 13 15 17 20 22 22 23 24 25 27 28 28 30 31 34 36 40 43 45 48 50 52 55
13 15 10 11 12 17 24 31 35 25 14 19 31 34 26 20 16 12 9 9 9 10 11 14 17 19 20 21 23 25 26 27 28 31 33 36 39 42 44 46 48 51 54 59
23 22 20 13 9 17 16 19 20 10 19 32 28 17 15 17 15 14 13 11 10 9 10 13 15 16 18 21 23 25 25 27 30 33 36 39 42 44 46 47 49 53 58 63
21 24 22 20 17 20 19 18 20 23 23 20 14 15 18 18 15 14 15 15 14 14 15 17 17 18 20 22 23 24 26 29 32 35 39 42 44 46 46 48 52 57 62 66
9 14 15 16 17 18 17 18 21 22 20 21 21 21 19 16 15 14 16 16 15 14 14 16 18 19 21 22 23 25 28 31 35 38 41 43 43 44 47 51 56 60 64 63
5 7 7 8 12 14 13 14 17 18 18 16 15 16 15 16 17 18 18 14 12 14 16 18 19 20 21 23 25 28 31 33 36 37 38 40 43 46 50 55 59 61 59 58
7 5 5 4 5 7 10 11 13 16 15 16 17 17 17 18 19 19 17 15 16 18 18 18 18 20 22 25 27 30 32 34 36 38 40 43 46 50 53 56 58 56 56 59
12 10 8 5 4 6 7 9 11 12 13 15 17 18 19 18 17 17 17 17 17 17 16 17 19 21 24 27 30 32 34 36 38 41 43 46 49 52 54 53 53 55 58 62
11 12 12 11 11 9 8 9 12 14 13 14 16 17 18 18 18 17 16 15 16 16 18 20 23 26 27 29 31 33 36 38 41 43 45 47 50 51 50 51 53 57 60 64
11 13 16 15 13 10 10 8 9 11 13 13 15 16 18 17 16 14 13 14 16 19 21 22 24 26 28 31 33 36 38 39 41 43 46 48 47 48 50 52 55 59 63 69
10 13 16 16 14 13 12 10 11 9 10 14 13 14 16 16 14 13 13 14 15 17 19 22 25 28 30 32 34 35 36 38 42 44 45 45 46 48 50 54 57 63 69 75
16 16 17 19 18 16 12 13 14 13 13 14 13 11 11 11 12 11 12 14 16 18 21 24 27 29 31 32 33 35 38 40 41 42 44 46 47 49 52 56 63 70 76 82
Wind_Direction
267 264 261 260 258 253 249 246 244 246 249 249 249 248 247 244 239 239 242 242 238 235 239 241 242 242 241 245 249 254 253 238 241 253 262 267 275 282 290 293 294 293 290 288
270 269 266 259 255 253 251 248 246 246 247 246 244 244 244 242 233 233 237 238 237 232 235 237 237 241 242 243 248 252 252 243 245 255 261 268 276 285 292 296 293 293 294 294
270 266 263 261 259 257 255 253 250 248 246 247 245 241 240 239 233 228 231 232 232 227 231 235 236 240 243 244 247 252 254 254 252 255 261 269 277 284 293 298 297 298 299 298
268 268 266 262 259 256 254 252 248 244 242 240 239 238 235 232 228 227 229 229 228 224 228 234 235 238 241 242 246 252 252 256 256 257 261 268 275 284 291 294 296 297 297 296
269 263 259 257 254 250 249 244 242 239 237 235 230 234 230 229 224 223 226 228 224 221 224 231 233 236 238 241 245 249 250 255 257 258 262 267 274 282 288 291 293 294 296 297
268 260 255 254 251 250 245 237 236 234 230 233 226 227 227 222 222 222 223 226 224 223 226 231 236 237 237 240 244 248 249 253 256 258 261 265 273 281 286 290 292 293 295 296
264 255 256 256 253 249 241 229 226 228 226 228 223 222 223 214 216 219 223 224 221 222 226 233 238 238 236 237 241 246 248 251 255 257 261 267 275 281 285 288 290 293 294 294
250 247 247 255 255 247 236 226 222 222 225 225 223 221 218 209 210 214 220 221 216 217 224 232 237 238 237 237 241 247 251 253 257 261 265 270 276 281 285 287 290 292 293 293
248 246 248 251 242 232 228 226 222 225 226 222 220 218 214 206 212 217 222 220 215 212 222 232 237 239 238 238 242 248 254 258 261 265 269 273 278 282 285 289 291 292 293 294
252 253 245 244 239 230 222 219 221 220 217 213 214 215 211 209 226 224 218 213 207 213 224 231 236 236 235 237 242 249 255 259 263 267 271 276 281 283 287 289 291 292 293 294
261 256 239 233 226 223 215 209 211 210 210 210 211 215 211 219 214 205 207 204 205 211 217 223 227 229 232 236 242 249 255 261 265 269 274 279 281 284 286 288 291 293 294 296
248 235 221 215 214 207 195 201 206 203 200 201 209 214 195 189 187 180 190 199 207 213 217 220 223 227 233 238 243 249 256 262 267 273 277 280 282 284 286 290 292 294 295 296
236 210 197 181 179 185 194 201 203 201 198 194 193 169 177 174 167 171 186 196 207 217 221 223 227 233 238 242 247 253 260 265 271 275 278 280 282 285 289 291 293 294 294 295
194 179 158 158 173 177 178 188 194 194 199 195 150 150 165 158 166 176 187 197 208 216 221 227 235 241 245 249 253 258 262 268 273 276 278 281 285 288 291 293 293 293 294 297
20 86 135 164 206 202 182 185 190 196 199 181 136 156 168 160 177 179 185 194 202 210 218 226 233 239 245 252 257 261 266 271 275 278 281 285 288 290 292 292 292 294 297 300
34 61 101 159 150 167 188 199 194 195 179 162 158 159 157 162 172 176 187 198 207 215 223 232 239 244 249 255 261 266 270 274 277 281 284 288 290 291 291 292 295 298 300 302
80 86 99 120 141 159 152 169 178 161 142 142 146 149 164 190 198 210 225 230 228 231 241 250 257 261 263 265 268 270 273 276 281 286 289 290 289 290 291 294 297 300 302 304
101 98 104 99 106 130 128 128 131 134 143 144 156 187 202 206 207 218 232 241 246 251 253 257 258 259 261 263 267 272 277 283 287 288 288 288 289 291 293 297 301 303 305 307
140 127 117 106 111 122 131 144 160 167 173 174 187 199 208 214 220 225 230 233 235 242 247 252 257 262 265 269 275 280 284 286 286 287 289 292 294 297 299 301 303 305 306 307
173 145 141 121 128 140 148 162 175 182 194 201 213 223 229 231 238 239 243 249 250 253 257 261 266 269 273 276 280 282 284 286 288 290 292 294 296 298 300 302 304 305 307 308
211 202 202 182 165 171 179 187 199 206 211 217 226 234 241 245 244 247 254 262 261 260 262 267 271 274 277 279 280 281 284 286 288 289 291 294 297 300 302 304 305 307 308 310
217 211 205 202 193 197 204 214 219 223 227 228 231 232 234 240 244 248 255 260 262 266 269 272 276 279 282 282 283 284 287 288 290 292 295 298 300 302 303 305 307 309 311 313
207 210 209 203 199 205 220 226 228 230 230 229 229 230 232 234 238 245 252 259 264 268 272 276 281 285 286 286 287 288 290 291 294 296 298 300 301 303 305 307 310 312 313 314
202 199 197 195 194 205 218 217 223 225 231 236 240 237 234 233 234 237 246 258 267 274 278 281 284 286 287 288 289 291 294 295 296 297 299 301 303 305 308 310 312 314 315 316
206 195 194 204 212 214 216 217 215 228 234 237 243 239 234 230 229 239 254 263 270 274 279 283 285 287 288 290 293 295 296 296 298 300 302 304 306 309 311 313 315 317 318 319
217 209 206 214 223 225 227 232 237 241 238 238 233 239 238 227 227 234 248 262 272 280 286 288 288 289 291 294 295 297 298 300 302 304 306 307 309 311 313 315 317 319 320 320